{"data":{"norad_id":67446,"intl_designator":"2026-008B","name":"STARLINK-36539","alt_names":[],"object_type":"PAYLOAD","status":"ACTIVE","operator":null,"country":"US","launch_date":"2026-01-14","launch_site_code":"AFETR","launch_vehicle":null,"mission":null,"orbit_class":"UNKNOWN","rcs_meters":null,"size_class":null,"mass_kg":null,"dimensions":null,"purposes":["comms"],"wikipedia_slug":null,"has_3d_model":false,"image_url":null,"decayed_at":null,"tle_current":{"epoch":"2026-09-19T05:06:05.838912Z","epoch_age_seconds":186556,"freshness":"STALE","line1":"1 67446U 26008B   26262.21256758  .00009733  00000+0  36269-3 0  9997","line2":"2 67446  43.0009 192.7834 0001513 270.8426  89.2252 15.27584055 39167","mean_motion":15.27584055,"eccentricity":0.0001513,"inclination_deg":43.0009,"raan_deg":192.7834,"arg_perigee_deg":270.8426,"mean_anomaly_deg":89.2252,"bstar":0.00036269,"rev_number":3916,"period_min":94.266498480832,"perigee_km":481.9988583185,"apogee_km":484.07504955696,"semimajor_km":6861.1739539377,"source":"CELESTRAK","updated_at":"2026-09-20T09:00:43.526357Z"}}}